[[{"header":{"parameterUnit":"m.s-1","parameterCategory":1,"la1":30.2991,"la2":30.254,"lo1":-89.0895,"lo2":-89.0444,"dy":0.0017,"dx":0.0017,"nx":28,"ny":28,"refTime":"2024-03-01T09:00:00:Z","depth":0,"parameterNumber":2,"parameterNumberName":"U-component_of_WINDS"},"data":[0,0,0,0,0,0,0,0,0,0,0,0,0,0,0,0,0,0,0,0,0,0,0,0,0,0,0,0,0,0,0,0,0,0,0,0,0,0,0,0,0,0,0,0,0,0,0,0,0,0,0,0,0,0,0,0,0,0,0.8655,0.8653,0,0.8493,0.8491,0.849,0.8327,0.8325,0.8323,0.8321,0.8151,0.8149,0.8146,0,0,0,0,0,0,0,0,0,0,0,0,0,0.8821,0.8819,0.8655,0.8653,0.8651,0.8494,0.8491,0.8489,0.8328,0.8325,0.8323,0.832,0.8152,0.8149,0.8146,0,0,0,0,0,0,0,0,0,0,0,0,0,0.8713,0.8818,0.8655,0.8552,0.8541,0.8494,0.8491,0.8488,0.8328,0.8325,0.8322,0.8319,0.8153,0.8149,0.8146,0.8187,0,0,0.8134,0.8133,0,0,0,0,0,0,0,0,0.872,0.8707,0.8569,0.8559,0.8546,0.8427,0.8487,0.8387,0.8329,0.8409,0.8321,0.8317,0.8245,0.8234,0.8211,0.8179,0.8172,0.8134,0.8132,0.813,0.8129,0,0,0,0,0,0,0,0.8727,0.8713,0.8591,0.8567,0.8553,0.8512,0.8493,0.8468,0.8347,0.8402,0.839,0.8373,0.8239,0.8215,0.8205,0.8169,0.8134,0.8131,0.8128,0.8127,0.8165,0.8168,0,0,0,0,0,0,0.8751,0.8721,0.8596,0.8586,0.8627,0.8512,0.8491,0.8469,0.8347,0.8325,0.8376,0.8366,0.8223,0.821,0.8199,0.8239,0.813,0.8126,0.8124,0.8162,0.8166,0.8169,0,0,0,0,0,0,0.8755,0.8741,0.8602,0.865,0.8629,0.8513,0.8489,0.8467,0.8443,0.8327,0.8305,0.8374,0.822,0.8204,0.8192,0.8231,0.8125,0.8121,0.8158,0.8163,0.8167,0.8322,0,0,0,0,0,0,0.8761,0.8744,0.8759,0.8652,0.8627,0.8599,0.8491,0.8466,0.8437,0.8423,0.8319,0.8299,0.8216,0.8198,0.8188,0.8224,0.8118,0.8154,0.816,0.8166,0.8313,0.8331,0.8348,0,0,0,0,0,0.8767,0.8807,0.876,0.8746,0.8644,0.8602,0.8588,0.8493,0.8441,0.8455,0.8381,0.8302,0.8229,0.8198,0.8185,0.8221,0.8151,0.8158,0.8165,0.8305,0.8328,0.8347,0,0,0,0,0,0,0.892,0.8791,0.8738,0.8744,0.8686,0.8575,0.8589,0.852,0.8473,0.8461,0.8344,0.8322,0.8323,0.827,0.8239,0.8256,0.8179,0.8184,0.8289,0.831,0.8327,0.8339,0.8115,0,0,0,0,0,0.8955,0.8933,0.8821,0.8838,0.8811,0.8706,0.8684,0.8617,0.855,0.8524,0.8448,0.8386,0.8349,0.8327,0.8286,0.8305,0.828,0.8323,0.8341,0.8356,0.8361,0.8368,0.8386,0.8193,0.8193,0.8193,0,0,0.9025,0.8953,0.8945,0.8867,0.8813,0.8792,0.8686,0.8668,0.8651,0.852,0.8504,0.8448,0.837,0.8375,0.8372,0.8331,0.8409,0.8365,0.8378,0.8375,0.8377,0.8396,0.8412,0.8198,0.8197,0.8197,0,0,0.9144,0.9087,0.9095,0.9045,0.8966,0.8896,0.8899,0.8799,0.8757,0.874,0.8642,0.862,0.8558,0.8507,0.8474,0.8577,0.8503,0.8567,0.8658,0.8666,0.8681,0.8694,0.8731,0.8745,0.8573,0.8574,0.8574,0,0.9241,0.9207,0.9108,0.9097,0.9065,0.8949,0.8956,0.8912,0.8823,0.8804,0.876,0.8681,0.8621,0.8612,0.8638,0.8614,0.8613,0.8578,0.8687,0.8699,0.8709,0.8743,0.8757,0.8582,0.8581,0.858,0.858,0,0.9331,0.9309,0.9325,0.9245,0.9216,0.9214,0.9114,0.9096,0.9032,0.8968,0.8952,0.8877,0.8819,0.8812,0.8748,0.8795,0.8772,0.8709,0.8629,0.8738,0.8768,0.878,0.8594,0.8591,0.8589,0.8587,0,0,0.9537,0.9406,0.9413,0.9376,0.9283,0.9263,0.9257,0.9203,0.919,0.9134,0.9125,0.9078,0.902,0.8982,0.8912,0.892,0.9007,0.8855,0.8852,0.8886,0.9054,0.9101,0.9117,0.8958,0.896,0.8962,0.906,0,0.9638,0.9621,0.9533,0.9542,0.952,0.9412,0.9406,0.9348,0.9289,0.9261,0.9194,0.9162,0.9089,0.9065,0.9068,0.8996,0.9039,0.8988,0.8948,0.8948,0.897,0.9133,0.9181,0.9278,0.9071,0.9073,0.9074,0,0.9753,0.9707,0.9715,0.9624,0.9612,0.9609,0.9553,0.9529,0.9461,0.9417,0.9378,0.93,0.9286,0.9214,0.9194,0.9162,0.914,0.9103,0.9105,0.9096,0.9017,0.9128,0.9306,0.932,0.9092,0.909,0.9089,0,0.9902,0.9843,0.9839,0.9811,0.9705,0.9706,0.9662,0.9591,0.9565,0.9517,0.9499,0.945,0.9422,0.9385,0.9296,0.9252,0.9287,0.9207,0.9249,0.9251,0.9259,0.9259,0.9436,0.9248,0.9248,0.9248,0.9248,0,1.0023,1.0032,0.9905,0.9903,0.991,0.981,0.9819,0.9764,0.9703,0.9688,0.9591,0.9579,0.9463,0.9437,0.9367,0.9362,0.935,0.9313,0.9294,0.9321,0.9326,0.9304,0.9295,0.9251,0.9251,0.925,0.9249,0,1.019,1.0105,1.0095,0.9997,0.9973,0.9983,0.9898,0.9892,0.9828,0.981,0.98,0.9699,0.9664,0.9573,0.9513,0.9467,0.948,0.9446,0.9504,0.9491,0.9538,0.9535,0.9705,0.9723,0.9527,0.9529,0.9531,0,1.0271,1.0276,1.018,1.0165,1.0125,1.0101,1.0075,0.9978,0.9954,0.988,0.9883,0.9842,0.9802,0.9752,0.9672,0.9627,0.959,0.9653,0.9582,0.9609,0.959,0.959,0.959,0.9668,0.967,0.9673,0.9674,0,1.0426,1.0385,1.0352,1.0307,1.028,1.0238,1.0191,1.0183,1.0074,1.0053,1.0018,0.9988,0.993,0.9889,0.9832,0.9785,0.9712,0.9698,0.9705,0.9731,0.9765,0.9747,0.9545,0.9694,0.9692,0.969,0.9689,0.9689,1.055,1.055,1.0484,1.0452,1.0407,1.0367,1.0357,1.0294,1.0263,1.0209,1.0154,1.0125,1.0059,0.9975,0.9934,0.9909,0.987,0.9881,0.9883,0.9887,0.9899,0.9771,0.9898,0.9898,0.9897,0.9897,0.9896,0,1.0699,1.0652,1.0624,1.0563,1.0538,1.0475,1.0421,1.0403,1.038,1.0326,1.0291,1.0252,1.0213,1.0133,1.0086,1.0082,1.0048,1.0073,1.0071,1.0062,0.9937,0.9935,1.0102,1.0102,1.0102,1.0102,1.0102,1.0102,1.0773,1.0769,1.0722,1.0696,1.0648,1.0621,1.0596,1.0558,1.0514,1.0476,1.0444,1.0393,1.0328,1.0277,1.0239,1.0216,1.0203,1.024,1.0206,1.009,1.007,1.0052,1.0049,1.0238,1.0238,1.0333,1.0334,1.0334]},{"header":{"parameterUnit":"m.s-1","parameterCategory":1,"la1":30.2991,"la2":30.254,"lo1":-89.0895,"lo2":-89.0444,"dy":0.0017,"dx":0.0017,"nx":28,"ny":28,"refTime":"2024-03-01T09:00:00:Z","depth":0,"parameterNumber":3,"parameterNumberName":"V-component_of_WINDS"},"data":[0,0,0,0,0,0,0,0,0,0,0,0,0,0,0,0,0,0,0,0,0,0,0,0,0,0,0,0,0,0,0,0,0,0,0,0,0,0,0,0,0,0,0,0,0,0,0,0,0,0,0,0,0,0,0,0,0,0,5.6527,5.6529,0,5.6711,5.6713,5.6715,5.6727,5.6724,5.6722,5.672,5.6898,5.6905,5.6911,0,0,0,0,0,0,0,0,0,0,0,0,0,5.6173,5.618,5.6527,5.6529,5.6531,5.6711,5.6713,5.6716,5.6727,5.6724,5.6722,5.672,5.6896,5.6904,5.6912,0,0,0,0,0,0,0,0,0,0,0,0,0,5.6339,5.6182,5.6526,5.6559,5.6564,5.671,5.6713,5.6716,5.6727,5.6724,5.6721,5.6718,5.6893,5.6903,5.6913,5.7036,0,0,5.6943,5.6948,0,0,0,0,0,0,0,0,5.6329,5.6351,5.6552,5.6557,5.6562,5.6693,5.6654,5.6823,5.6728,5.6665,5.672,5.6717,5.6832,5.6846,5.6887,5.7044,5.7052,5.6944,5.695,5.6955,5.6957,0,0,0,0,0,0,0,5.6318,5.6344,5.6599,5.6554,5.6561,5.656,5.658,5.6686,5.6763,5.667,5.6671,5.6694,5.6834,5.6878,5.6892,5.7055,5.6944,5.6953,5.6959,5.6963,5.7319,5.7322,0,0,0,0,0,0,5.6302,5.6334,5.6593,5.6605,5.6436,5.6569,5.6592,5.6654,5.6762,5.6776,5.6696,5.6694,5.6862,5.688,5.6898,5.7048,5.6955,5.6964,5.697,5.7316,5.732,5.7324,0,0,0,0,0,0,5.6294,5.6325,5.6586,5.647,5.6503,5.6579,5.6648,5.6659,5.6703,5.6782,5.6794,5.6728,5.6861,5.6884,5.7002,5.7054,5.6968,5.6977,5.7312,5.7317,5.7322,5.7349,0,0,0,0,0,0,5.6284,5.6322,5.6372,5.6471,5.6509,5.669,5.6652,5.6665,5.6722,5.672,5.6815,5.6827,5.686,5.6987,5.7012,5.7066,5.6985,5.7307,5.7314,5.732,5.7344,5.7355,5.7364,0,0,0,0,0,5.6271,5.6371,5.6375,5.6406,5.6575,5.6693,5.6715,5.6754,5.6726,5.6775,5.6825,5.6824,5.7045,5.6999,5.7027,5.7085,5.7304,5.7312,5.732,5.7339,5.7353,5.7364,0,0,0,0,0,0,5.6272,5.6384,5.639,5.6525,5.66,5.6695,5.6759,5.6767,5.6848,5.6843,5.6884,5.6905,5.7021,5.7065,5.7012,5.7209,5.7171,5.7185,5.7176,5.7189,5.7199,5.7185,5.6994,0,0,0,0,0,5.6289,5.638,5.6471,5.6581,5.6619,5.6683,5.6736,5.6759,5.6837,5.6868,5.6926,5.6999,5.7084,5.7139,5.7222,5.7351,5.737,5.7404,5.7414,5.7422,5.7433,5.7502,5.7517,5.7349,5.7349,5.7349,0,0,5.6323,5.6395,5.6449,5.6584,5.6644,5.6734,5.6709,5.6805,5.687,5.6881,5.6997,5.7042,5.7125,5.7248,5.7306,5.7288,5.7484,5.7432,5.7438,5.7444,5.7511,5.7527,5.7541,5.7355,5.7354,5.7353,0,0,5.643,5.6496,5.6594,5.6656,5.675,5.6791,5.6815,5.6909,5.6941,5.7058,5.7068,5.7144,5.7291,5.735,5.7398,5.7527,5.7528,5.7553,5.7604,5.7671,5.7684,5.7696,5.774,5.7755,5.7564,5.7564,5.7564,0,5.6459,5.6599,5.6642,5.6739,5.6796,5.6814,5.6911,5.6968,5.7082,5.7119,5.71,5.7284,5.7341,5.7477,5.7509,5.7549,5.7574,5.7542,5.768,5.7692,5.7703,5.7746,5.7762,5.7566,5.7566,5.7566,5.7566,0,5.6628,5.6724,5.6792,5.6906,5.6971,5.7067,5.7122,5.7181,5.7199,5.7241,5.7359,5.7429,5.7525,5.756,5.7577,5.7698,5.7684,5.7672,5.7634,5.7721,5.7761,5.7778,5.7569,5.7569,5.7568,5.7567,0,0,5.6741,5.6879,5.6902,5.6953,5.7058,5.7131,5.7226,5.7325,5.7374,5.7451,5.753,5.7654,5.7643,5.7699,5.7722,5.7781,5.7876,5.7761,5.7764,5.7778,5.8011,5.8018,5.8037,5.7878,5.7882,5.7884,5.8003,0,5.6858,5.7033,5.7075,5.7223,5.731,5.7328,5.741,5.7481,5.7523,5.76,5.7644,5.7731,5.7712,5.7745,5.7804,5.7852,5.7923,5.7844,5.7948,5.7951,5.7925,5.8058,5.8066,5.8175,5.8019,5.8022,5.8024,0,5.7018,5.7103,5.7261,5.7353,5.7391,5.7465,5.7558,5.7633,5.7712,5.7738,5.78,5.7818,5.7914,5.7873,5.8004,5.795,5.7995,5.8025,5.803,5.8039,5.7992,5.8069,5.8211,5.8227,5.805,5.8048,5.8046,0,5.7081,5.7235,5.7349,5.7392,5.7503,5.7554,5.7602,5.7679,5.7735,5.7814,5.785,5.7939,5.7987,5.8053,5.8093,5.806,5.822,5.8183,5.8241,5.824,5.8273,5.827,5.8422,5.8305,5.8305,5.8305,5.8304,0,5.7206,5.7301,5.7379,5.7448,5.7554,5.76,5.7702,5.7749,5.7818,5.7894,5.7914,5.7984,5.8034,5.811,5.8141,5.8244,5.8266,5.8287,5.8293,5.8284,5.8281,5.8312,5.8305,5.8309,5.8308,5.8307,5.8306,0,5.7294,5.735,5.7475,5.7571,5.7597,5.767,5.775,5.7816,5.7859,5.7955,5.798,5.8046,5.8137,5.8184,5.8297,5.8318,5.8432,5.8436,5.8406,5.8409,5.8464,5.8457,5.864,5.8665,5.8533,5.8535,5.8536,0,5.7369,5.7443,5.7548,5.7602,5.7652,5.7739,5.7797,5.7844,5.7903,5.7999,5.8053,5.8146,5.8222,5.8366,5.8421,5.8507,5.8511,5.8569,5.8523,5.8511,5.8509,5.8503,5.8509,5.8576,5.8577,5.8578,5.8579,0,5.7495,5.752,5.7605,5.7699,5.7769,5.7844,5.7919,5.7961,5.802,5.8084,5.8179,5.8239,5.8355,5.8446,5.8536,5.8581,5.8589,5.8594,5.8611,5.8601,5.858,5.859,5.8426,5.8588,5.8588,5.8587,5.8586,5.8586,5.7577,5.7644,5.7728,5.7821,5.7883,5.7952,5.8019,5.8071,5.8153,5.8253,5.8275,5.8375,5.845,5.8573,5.8621,5.8697,5.8684,5.871,5.8716,5.8722,5.8723,5.857,5.8713,5.8713,5.8713,5.8713,5.8713,0,5.7703,5.7758,5.7844,5.7949,5.8022,5.8028,5.811,5.8169,5.8258,5.833,5.8405,5.8513,5.8601,5.8665,5.8753,5.8802,5.8807,5.8823,5.8819,5.8828,5.873,5.8705,5.8817,5.8817,5.8817,5.8817,5.8817,5.8817,5.7776,5.7888,5.7922,5.8063,5.8117,5.8218,5.8264,5.8327,5.8384,5.8505,5.858,5.8622,5.8689,5.8783,5.8863,5.8879,5.8909,5.8925,5.894,5.8847,5.8836,5.8825,5.8802,5.8932,5.8932,5.9032,5.9033,5.9034]}]]